Погода в Тамбове

Погода в Тамбове : погода сейчас, прогноз погоды и архив. Всё, что Вы хотите узнать о погоде в Тамбове!

Поиск расширенной информации на нашем сайте:

Другие новости

Новости СМИ2

Главная страница сайта

Новости сайта

03.07.2017

Напоминаем, что на нашем специализированном сайте Метеоцентр.Азия вы можете получить высокодетализированные автоматические прогнозы погоды по пунктам России, СНГ и мира в авиационном формате (включающие направление и скорость ветра, видимость, явления погоды, количество и форму облачности, нижнюю и верхнюю границу облачности).


Погода в Тамбове - сегодня

Время (UTC), дата Ветер
(°,м/с) 
Видим.   Явления Облачность Т
(°С)
Тd
(°С)
f(%) Тe
(°С)
Pmin
(гПа)
dP
(гПа)
Po
(мм)
O2
(г/м3)
Тmin Tmax R s Состояние
почвы
21 13.08.18 тихо ()   10 км    9/0 верхняя 
[Ci fib]
+13.8 +8.9 72 +14  1013.4  0.9  748  285           
00 14.08.18 тихо ()   10 км    6/0 верхняя 
[Ci fib]
+12.1 +10.5 90 +14  1014.2  0.7  749  287           
06 14.08.18 290 (З) 10 км    4/0 средняя, верхняя 
[Ac trans|Ci fib]
+20.6 +10.3 52 +22  1015.3  0.6  750  279           
09 14.08.18 280 (З) 10 км    8/8 1000 м 
[Cu Sc]
+22.7 +9.4 43 +23  1015.7  0.5  750  277           
12 14.08.18 270 (З) 10 км    8/8 1000 м 
[Cu hum]
+24.4 +9.2 38 +25  1015.3  -0.3  750  276           
18 14.08.18 тихо ()   10 км    4/0 верхняя 
[Ci fib]
+17 +10.4 65 +19  1016.7  1.1  751  283           
21 14.08.18 тихо ()   10 км    4/0 верхняя 
[Ci fib]
+13.4 +10.5 83 +15  1017.5  0.6  751  287           
00 15.08.18 нст () 10 км    4/0 верхняя 
[Ci fib]
+13.1 +10.4 84 +16  1018.1  0.6  752  287           
06 15.08.18 140 (ЮВ) 10 км    8/0 средняя 
[Ac trans]
+21.9 +12 53 +26  1018  0.2  752  278           
09 15.08.18 170 (Ю) 10 км    9/0 средняя 
[Sc|Ac trans]
+24.5 +10.3 41 +26  1017.5  -0.4  752  276           
12 15.08.18 170 (Ю) 10 км    9/0 средняя 
[Sc|Ac trans]
+27.5 +11.8 38 +31  1016.2  -1.1  751  273           
15 15.08.18 170 (Ю) 10 км    9/6 1000 м средняя 
[Sc|Ac trans]
+24.5 +10.3 41 +26  1017.5  -0.4  752  276           
18 15.08.18 130 (ЮВ) 10 км    5/0 верхняя 
[Ci sp]
+21.7 +13 58 +27  1015  750  277           
21 15.08.18 150 (ЮВ) 10 км    ясно 
+20 +12 60 +24  1015  -0.1  750  279           
00 16.08.18 130 (ЮВ) 10 км    ясно 
+18.6 +11.9 65 +23  1014.9  -0.2  749  280           
06 16.08.18 170 (Ю) 10 км    5/0 средняя 
[Ac trans]
+23.9 +12.8 50 +29  1015.1  0.3  750  275           
09 16.08.18 190 (Ю) 10 км    8/0 верхняя 
[Ci sp]
+29.1 +15.2 43 +38  1014.5  -0.3  750  270           
12 16.08.18 300 (СЗ) 10 км    6/4 1000 м верхняя 
[Cu hum|Ci sp]
+30 +15.2 41 +39  1014.3  -0.2  749  269           
18 16.08.18 320 (СЗ) 10 км    6/0 средняя, верхняя 
[Ac trans|Ci sp]
+21.1 +14 64 +28  1016.1  1.4  750  278           
21 16.08.18 320 (СЗ) 10 км    8/0 средняя 
[Ac trans]
+18.3 +13.7 75 +26  1016.7  0.8  751  281           
00 17.08.18 320 (СЗ) 10 км    8/0 средняя 
[Ac trans]
+17.1 +14.1 83 +25  1017.9  0.8  752  282           
06 17.08.18 340 (С) 10 км    10/10 270 м 
[St]
+17.8 +15.8 88 +28  1020  1.7  753  282           
09 17.08.18 360 (С) 10 км    9/9 1000 м 
[Sc]
+20.3 +15.4 73 +30  1019.9  753  279           
12 17.08.18 360 (С) 10 км    8/8 1000 м 
[Cu hum]
+22.8 +12.3 52 +27  1019.5  -0.3  753  278           
18 17.08.18 350 (С) 10 км    3/0 средняя 
[Ac trans]
+18.6 +9.3 55 +20  1020.3  0.8  753  283           
Время (UTC), дата Ветер
(°,м/с) 
Видим.   Явления Облачность Т
(°С)
Тd
(°С)
f(%) Тe
(°С)
Pmin
(гПа)
dP
(гПа)
Po
(мм)
O2
(г/м3)
Тmin Tmax R s Состояние
почвы

Для получения пояснительной информации подведите курсор к названию столбца.

ПОГОДА в Тамбове - архив

Всё, что Вы хотите узнать о погоде в Тамбове - удобно и подробно!

Выберите нужную дату (начиная с 1 января 2015* года) и нажмите кнопку "Найти".
Будут отображены архивные сводки погоды по пункту Тамбов, начиная с указанной даты.


Отображать данные в формате CSV (для использования в таблицах Excel)


Внимание! Наш архив погоды предназначен исключительно для личного некоммерческого использования в познавательных целях. Если Вам необходимы официальные справки о состоянии погоды (для производственных, юридических, коммерческих и т.п. целей), обращайтесь в органы Росгидромета.

*Примечание: данная дата относится к архиву по метеостанциям СССР (Россия, СНГ, Балтия).
Архив по метеостанциям Зарубежной Европы и Азии (кроме Китая) хранится 10 дней, по другим регионам земного шара (Китай, Африка, Америка, Австралия, Океания) - 1 день.

Тамбов - район местоположения метеостанции


Название, широта, долгота, высота метеостанции:
Тамбов 52.8°ш. 41.3°д. 128 м над ур. моря [Российская Федерация]

Дополнительная информация

В oтличие oт бoльшинства пoгoдных сайтoв мы публикуем пoдрoбную метеoинфoрмацию в детальнoм прoфессиoнальнoм фoрмате.

Характеристики температуры и влажнoсти вoздуха измеряются на высoте 2 м в тени вдали oт зданий и деревьев.
Скoрoсть ветра измеряется на высoте 10 м (на урoвне рoста челoвека скoрoсть ветра ниже в 1.5-2 раза). Если метеoстанция нахoдится в гoрoде или в лесу, тo скoрoсть ветра занижена на 2-4 м/с пo сравнению с oткрытым местoм. Скoрoсть ветра над акватoриями крупных рек и oзёр, а также на вершинах хoлмoв на 2-5 м/с выше, чем в oбычных услoвиях.
Атмoсфернoе давление в разных тoчках местнoсти мoжет значительнo oтличаться oт давления на метеoстанции, в зависимoсти oт услoвий рельефа (при пoдъёме на 10 м давление пoнижается примернo на 1 мм рт.ст.).